Regional Weather Roundup
Issued by NWS Portland, ME

Home | Current Version | Previous Version | Text Only | Print | Product List | Glossary On
Versions: 1 2 3 4 5 6 7 8 9 10 11 12 13 14 15 16 17 18 19 20 21 22 23 24 25 26 27 28 29 30 31 32 33 34 35 36 37 38 39 40 41 42 43 44 45 46 47 48 49 50
000
ASUS41 KGYX 030005
RWRGYX
WEATHER ROUNDUP FOR MAINE AND NEW HAMPSHIRE
NATIONAL WEATHER SERVICE GRAY ME
800 PM EDT TUE SEP 02 2014

MEZ002-005-006-010-012-015-018-020-021-024-026-027-029-030100-
MAINE

CITY           SKY/WX    TMP DP  RH WIND       PRES   REMARKS
PORTLAND       PTCLDY    73  70  90 S7        29.75F
6HR MIN TEMP:  73; 6HR MAX TEMP:  79;

SANFORD        PTCLDY    73  70  88 SW6       29.77F
BAR HARBOR     CLOUDY    66  64  94 SE3       29.80F VSB 1/2
WISCASSET      CLOUDY    70  68  93 CALM      29.77F
6HR MIN TEMP:  70; 6HR MAX TEMP:  80;

ROCKLAND       CLOUDY    63  63 100 E5        29.77F VSB 1/4
FRYEBURG       CLEAR     75  69  81 CALM      29.75F
6HR MIN TEMP:  75; 6HR MAX TEMP:  88;

LEWISTONAUBURN CLEAR     72  68  88 SE6       29.76S
AUGUSTA        CLEAR     71  69  93 S5        29.76S
6HR MIN TEMP:  71; 6HR MAX TEMP:  82;

WATERVILLE     PTCLDY    72  70  94 S5        29.72S
BANGOR         CLOUDY    70  67  90 S12       29.78S FOG
6HR MIN TEMP:  70; 6HR MAX TEMP:  77;

GREENVILLE       N/A     70  69  97 MISG      29.77S
6HR MIN TEMP:  70; 6HR MAX TEMP:  75;

MILLINOCKET    CLOUDY    73  70  90 SE6       29.77S
6HR MIN TEMP:  71; 6HR MAX TEMP:  74;

HOULTON        CLOUDY    72  68  87 VRB7      29.76F
6HR MIN TEMP:  72; 6HR MAX TEMP:  79;

PRESQUE ISLE   CLOUDY    73  66  78 S12       29.74R
6HR MIN TEMP:  73; 6HR MAX TEMP:  79;

FRENCHVILLE    LGT RAIN  69  66  90 S9        29.74S
6HR MIN TEMP:  69; 6HR MAX TEMP:  75; 6HR PCP:  0.05;

CARIBOU        CLOUDY    73  67  81 S9        29.74S
6HR MIN TEMP:  73; 6HR MAX TEMP:  77;

$$

NHZ002-005-008-009-011-012-014-030100-
NEW HAMPSHIRE

CITY           SKY/WX    TMP DP  RH WIND       PRES   REMARKS
PORTSMOUTH     MOCLDY    72  70  93 S3        29.76F
ROCHESTER      PTCLDY    74  72  93 CALM      29.77F FOG
6HR MIN TEMP:  74; 6HR MAX TEMP:  81; 6HR PCP:  0.19;

NASHUA         PTCLDY    78  74  87 SE5       29.77F
MANCHESTER     PTCLDY    78  74  87 S6        29.75F
6HR MIN TEMP:  73; 6HR MAX TEMP:  88; 6HR PCP:  0.50;

CONCORD        PTCLDY    75  72  90 S6        29.76F
6HR MIN TEMP:  74; 6HR MAX TEMP:  84; 6HR PCP:  0.04;

LACONIA        CLEAR     75  70  83 S7        29.75F
PLYMOUTH       FAIR      72  72 100 CALM      29.74F
BERLIN         CLEAR     69  66  90 CALM      29.76F
6HR MIN TEMP:  69; 6HR MAX TEMP:  87;

WHITEFIELD     CLEAR     73  67  81 CALM      29.75F
6HR MIN TEMP:  73; 6HR MAX TEMP:  86;

JAFFREY        MOCLDY    77  71  82 S6        29.81F
6HR MIN TEMP:  72; 6HR MAX TEMP:  82; 6HR PCP:  0.01;

LEBANON        CLEAR     74  68  81 S5        29.74F
6HR MIN TEMP:  74; 6HR MAX TEMP:  86;

MT WASHINGTON  NOT AVBL
$$

VTZ005-007-008-030100-
VERMONT

CITY           SKY/WX    TMP DP  RH WIND       PRES   REMARKS
ST JOHNSBURY     N/A     77  69  76 MISG      29.71F
MONTPELIER     MOCLDY    75  66  73 S7        29.78F
BURLINGTON     HVY RAIN  76  70  82 W12G24    29.71R
$$

MAZ007-012-024-CTZ003-RIZ002-NYZ038-NYZ072-030100-
SOUTHERN NEW ENGLAND AND NY

CITY           SKY/WX    TMP DP  RH WIND       PRES   REMARKS
BOSTON         MOCLDY    80  72  76 SW9       29.78F
WORCESTER      CLEAR     76  72  87 S7        29.83F
NANTUCKET      FOG       69  69 100 S7        29.85F VSB 1/2
PROVIDENCE     PTCLDY    79  70  74 S8        29.81S
HARTFORD       PTCLDY    84  71  65 S10       29.76S
ALBANY         PTCLDY    79  72  79 S7        29.73S
NEW YORK CITY  PTCLDY    89  65  44 SW13      29.79S HX  91
$$

ANZ081-ANZ082-ANZ150-NHZ014-MEZ023>029-030100-
COASTAL MARINE OBSERVATIONS

STATION/POSITION TIME  TEMP    WIND        PRES    WAVE
                       AIR SEA DIR/SP/G            HT/PER
                 (UTC) (F)     (DEG/KT/KT) (MB)    (FT/S)
MATINICUS ROCK   2300          170/ 17/ 18 1008.3F
PORTLAND WX BUOY 2350   68 64  200/ 10/ 12 1007.4F   2/ 6
WELLS            2300   70 58  200/ 12/ 15 1007.4F
ISLE OF SHOALS   2300   73     190/ 17/ 18 1007.8F
JEFFREYS LEDGE   2321      68                N/A     2/ 7
CASHES LEDGE BUO 2350   70 67              1007.8F   3/ 7
$$

.............KEY..............
   WCI - WIND CHILL
   TC  - TEMPERATURE IN CELSIUS
   VSB - VISIBILITY IN MILES
   HX  - HEAT INDEX
   FAIR- INDICATES FEW OR NO CLOUDS BELOW 12,000 FT, WITH NO
         SIGNIFICANT WEATHER AND/OR OBSTRUCTIONS TO VISIBILITY.





USA.gov is the U.S. government's official web portal to all federal, state and local government web resources and services.